Regional Weather Roundup
Issued by NWS

Home | Current Version | Previous Version | Text Only | Print | Product List | Glossary Off
Versions: 1 2 3 4 5 6 7 8 9 10 11 12 13 14 15 16 17 18 19 20 21 22 23 24 25 26 27 28 29 30 31 32 33 34 35 36 37 38 39 40 41 42 43 44 45 46 47 48 49 50

000
ASUS43 KLOT 031621
RWRIL

ILLINOIS REGIONAL WEATHER ROUNDUP
NATIONAL WEATHER SERVICE CHICAGO/ROMEOVILLE IL
1100 AM CDT SUN MAY 03 2015

NOTE: "FAIR" INDICATES FEW OR NO CLOUDS BELOW 12,000 FEET WITH NO
SIGNIFICANT WEATHER AND/OR OBSTRUCTIONS TO VISIBILITY.

* THESE STATIONS ARE NOT UNDER NWS QUALITY CONTROL. THEY ALSO MAY NOT
  REPORT WEATHER SUCH AS PRECIPITATION OR FOG.

ILZ001-002-007-009-015-016-024-031700-
NORTHWEST ILLINOIS

CITY           SKY/WX    TMP DP  RH WIND       PRES   REMARKS
MOLINE         CLOUDY    70  54  56 S13       29.87F
STERLING*      CLOUDY    59  54  82 SE6       29.95F
SAVANNA*       CLOUDY    62  55  76 S14       29.90F
$$

ILZ003-004-008-010-011-017-018-031700-
NORTH CENTRAL ILLINOIS

CITY           SKY/WX    TMP DP  RH WIND       PRES   REMARKS
ROCKFORD       CLOUDY    73  52  47 SW20G26   29.95S
FREEPORT*      CLOUDY    65  53  64 S23       29.95R
ROCHELLE*      RAIN      63  56  76 SW20      29.97R
DE KALB*       MOSUNNY   71  49  46 SW18G26   29.97S
PERU*          CLOUDY    67  47  49 S7        29.98S
$$

ILZ005-006-012>014-019>023-031700-
NORTHEAST ILLINOIS

CITY           SKY/WX    TMP DP  RH WIND       PRES   REMARKS
CHICAGO-OHARE  PTSUNNY   72  45  37 SW12G22   29.97S
CHICAGO-MIDWAY PTSUNNY   74  45  35 S14       29.98S
AURORA         PTSUNNY   73  48  41 SW14      29.98R
LANSING*       CLOUDY    73  40  31 SW17G24   30.00S
JOLIET*        PTSUNNY   75  48  39 S10       29.99R
WAUKEGAN       PTSUNNY   74  47  38 S14       29.95R
DUPAGE AIRPORT PTSUNNY   73  48  41 SW17      29.97S
KANKAKEE*      PTSUNNY   74  50  42 SW15G22   30.01F
WHEELING       PTSUNNY   72  46  39 S14       29.97F
MORRIS*        PTSUNNY   73  47  39 SW15      29.97S
ROMEOVILLE*    PTSUNNY   73  44  35 SW13      29.99R
NORTHERLY ISL    N/A     73  42  32 SW9         N/A
$$

LMZ740>746-031700-
SOUTHERN LAKE MICHIGAN

STATION/POSITION SKY/WX   TEMP    WIND        PRES    VSBY  WAVE
                          AIR SEA DIR/SP/G                  HT/PER
                          (F)     (DEG/KT/KT) (MB)    (MI)  (FT/S)
HARRISON CRIB              67     190/ 15/ 18   N/A
BURNHAM HARBOR             73     170/ 12/ 17   N/A
CALUMET HARBOR             70     190/ 10/ 13   N/A
BURNS HARBOR               70     210/ 15/ 20 1016.3S
MICHIGAN CITY              72     180/ 20/ 24   N/A
MICHIGAN CITY 6N           63 50  220/ 10/ 14   N/A           1
ST. JOSEPH                 58 49  230/  4/  4   N/A           1
$$

ILZ025>027-034>036-040-047-049-050-058-095>099-031700-
WEST-CENTRAL ILLINOIS

CITY           SKY/WX    TMP DP  RH WIND       PRES   REMARKS
QUINCY         MOSUNNY   72  53  51 S12       29.95S
GALESBURG*     PTSUNNY   71  53  51 S14       29.92F
MACOMB*        PTSUNNY   74  51  44 S15       29.97S
JACKSONVILLE*  SUNNY     79  51  38 S10       29.98S
PITTSFIELD*    MOSUNNY   76  52  42 S13G20    29.98S
$$

ILZ028>032-037-038-041>044-048-051>054-059>061-031700-
CENTRAL ILLINOIS

CITY           SKY/WX    TMP DP  RH WIND       PRES   REMARKS
PONTIAC        CLOUDY    75  48  38 S14       30.00S
BLOOMINGTON    MOSUNNY   76  51  41 SW17      30.01S
DECATUR        SUNNY     77  49  37 SW16      30.02F
PEORIA         SUNNY     76  51  41 S10       29.97F
LACON*         MOSUNNY   72  50  45 SW12      29.96S
LINCOLN*       SUNNY     77  49  36 SW8       29.98S
SPRINGFIELD    SUNNY     78  51  38 S13       30.00S
TAYLORVILLE    SUNNY     77  48  36 S16       30.02S
$$

ILZ033-039-045-046-055>057-062-063-031700-
EAST-CENTRAL ILLINOIS

CITY           SKY/WX    TMP DP  RH WIND       PRES   REMARKS
CHAMPAIGN      MOSUNNY   79  41  25 S22G28    30.03S
DANVILLE*      PTSUNNY   75  46  35 S17       30.02S
RANTOUL*       PTSUNNY   79  42  27 SW17G24   30.02S
MATTOON        MOSUNNY   72  43  35 S15       30.06S
PARIS*         MOSUNNY   75  48  37 S15G22    30.07S
$$

ILZ079-100>102-031700-
SOUTHWEST ILLINOIS

CITY           SKY/WX    TMP DP  RH WIND       PRES   REMARKS
ALTON          MOSUNNY   75 N/A N/A S10       30.03S
BELLEVILLE     SUNNY     75  52  44 VRB5      30.03F
CAHOKIA*       MOSUNNY   76  50  40 SW6       30.02F
SPARTA*        MOSUNNY   71  49  45 S12       30.07S
$$

ILZ064>066-069>071-074>076-080>082-084>086-088>090-092>094-031700-
SOUTH-CENTRAL ILLINOIS

CITY           SKY/WX    TMP DP  RH WIND       PRES   REMARKS
CARBONDALE     PTSUNNY   74  49  41 S16       30.08F
CAIRO*         PTSUNNY   75  49  39 S9        30.10S
EFFINGHAM*     SUNNY     74  41  29 S13       30.08S
MARION         MOSUNNY   75  50  41 S12       30.10S
MT. VERNON     SUNNY    N/A N/A N/A S17       30.08F
CENTRALIA*     SUNNY     78  45  30 S15       30.06F
SALEM*         SUNNY     78  41  26 SW14      30.06F
METROPOLIS*    MOSUNNY   75  49  39 SW8       30.10S
$$

ILZ067-068-072-073-078-083-087-091-031700-
SOUTHEAST ILLINOIS

CITY           SKY/WX    TMP DP  RH WIND       PRES   REMARKS
LAWRENCEVILLE  MOSUNNY   76  47  35 S14G20    30.09S
FLORA*         MOSUNNY   74  46  36 SW14      30.08S
FAIRFIELD*     SUNNY     75  47  36 SW10G18   30.08S
HARRISBURG*    MOSUNNY   74  45  35 S13G18    30.11S
ROBINSON*      MOSUNNY   76  45  32 SW12      30.09S
CARMI*         SUNNY     75  42  30 S14       30.09S
$$

ABBREVIATIONS USED IN REMARKS
   TC - TEMPERATURE IN CELSIUS
  WCI - WIND CHILL INDEX
   HX - HEAT INDEX
  VSB - VISIBILITY
$$




USA.gov is the U.S. government's official web portal to all federal, state and local government web resources and services.